Time,TemperatureF,DewpointF,PressureIn,WindDirection,WindDirectionDegrees,WindSpeedMPH,WindSpeedGustMPH,Humidity,HourlyPrecipIn,Conditions,Clouds,dailyrainin,SoftwareType,DateUTC
2013-06-15 00:00:00,66.3,54.6,29.98,NE,51,0.0,0.0,66,0.00,CLR,,0.00,WeatherDisplay:10.37,2013-06-15 04:00:00,
2013-06-15 00:01:00,66.3,54.2,29.98,NE,51,0.0,0.0,65,0.00,CLR,,0.00,WeatherDisplay:10.37,2013-06-15 04:01:00,
2013-06-15 00:06:00,66.4,54.3,29.98,NE,51,1.2,0.0,65,0.00,CLR,,0.00,WeatherDisplay:10.37,2013-06-15 04:06:00,
2013-06-15 00:11:00,66.4,54.7,29.98,NE,51,1.2,1.2,66,0.00,CLR,,0.00,WeatherDisplay:10.37,2013-06-15 04:11:00,
2013-06-15 00:16:00,66.3,54.6,29.98,NNE,19,3.5,3.5,66,0.00,CLR,,0.00,WeatherDisplay:10.37,2013-06-15 04:16:00,
2013-06-15 00:21:00,66.6,54.0,29.98,NNE,19,0.0,0.0,64,0.00,CLR,,0.00,WeatherDisplay:10.37,2013-06-15 04:21:00,
2013-06-15 00:26:00,66.8,54.2,29.98,NNE,19,1.2,0.0,64,0.00,CLR,,0.00,WeatherDisplay:10.37,2013-06-15 04:26:00,
2013-06-15 00:31:00,66.9,54.3,29.98,NNE,19,0.0,0.0,64,0.00,CLR,,0.00,WeatherDisplay:10.37,2013-06-15 04:31:00,
2013-06-15 00:36:00,66.8,54.7,29.98,NNE,19,0.0,0.0,65,0.00,CLR,,0.00,WeatherDisplay:10.37,2013-06-15 04:36:00,
2013-06-15 00:41:00,66.8,53.8,29.98,NNE,19,1.2,1.2,63,0.00,CLR,,0.00,WeatherDisplay:10.37,2013-06-15 04:41:00,
2013-06-15 00:46:00,66.9,53.5,29.99,NNE,19,0.0,0.0,62,0.00,CLR,,0.00,WeatherDisplay:10.37,2013-06-15 04:46:00,
2013-06-15 00:51:00,67.3,53.8,29.99,NNE,19,0.0,0.0,62,0.00,CLR,,0.00,WeatherDisplay:10.37,2013-06-15 04:51:00,
2013-06-15 00:56:00,67.6,54.1,29.99,NNE,20,0.0,0.1,62,0.00,CLR,,0.00,WeatherDisplay:10.37,2013-06-15 04:56:00,
2013-06-15 01:01:00,67.8,54.3,29.99,NNE,20,1.2,0.0,62,0.00,CLR,,0.00,WeatherDisplay:10.37,2013-06-15 05:01:00,
2013-06-15 01:06:00,67.8,54.3,29.99,NNE,20,0.0,0.0,62,0.00,CLR,,0.00,WeatherDisplay:10.37,2013-06-15 05:06:00,
2013-06-15 01:11:00,67.8,54.3,30.00,NNE,20,0.0,0.0,62,0.00,CLR,,0.00,WeatherDisplay:10.37,2013-06-15 05:11:00,
2013-06-15 01:16:00,67.6,55.8,30.00,NNE,20,0.0,0.0,66,0.00,CLR,,0.00,WeatherDisplay:10.37,2013-06-15 05:16:00,
2013-06-15 01:21:00,67.1,57.0,30.00,East,80,0.0,0.0,70,0.00,CLR,,0.00,WeatherDisplay:10.37,2013-06-15 05:21:00,
2013-06-15 01:26:00,66.4,57.5,30.00,East,80,0.0,0.0,73,0.00,CLR,,0.00,WeatherDisplay:10.37,2013-06-15 05:26:00,
2013-06-15 01:31:00,65.6,57.5,30.00,East,80,0.0,0.0,75,0.00,CLR,,0.00,WeatherDisplay:10.37,2013-06-15 05:31:00,
2013-06-15 01:36:00,64.7,57.3,30.00,East,80,0.0,0.0,77,0.00,CLR,,0.00,WeatherDisplay:10.37,2013-06-15 05:36:00,
2013-06-15 01:41:00,64.0,57.0,30.00,East,80,0.0,0.0,78,0.00,CLR,,0.00,WeatherDisplay:10.37,2013-06-15 05:41:00,
2013-06-15 01:46:00,63.4,56.4,30.00,East,80,0.0,0.0,78,0.00,CLR,,0.00,WeatherDisplay:10.37,2013-06-15 05:46:00,
2013-06-15 01:51:00,63.1,56.5,30.00,East,80,0.0,0.0,79,0.00,CLR,,0.00,WeatherDisplay:10.37,2013-06-15 05:51:00,
2013-06-15 01:56:00,62.9,56.6,30.00,East,80,0.0,0.0,80,0.00,CLR,,0.00,WeatherDisplay:10.37,2013-06-15 05:56:00,
2013-06-15 02:01:00,62.6,56.3,30.01,East,80,0.0,0.0,80,0.00,CLR,,0.00,WeatherDisplay:10.37,2013-06-15 06:01:00,
2013-06-15 02:06:00,62.3,56.4,30.01,East,80,0.0,0.0,81,0.00,CLR,,0.00,WeatherDisplay:10.37,2013-06-15 06:06:00,
2013-06-15 02:11:00,62.0,56.4,30.01,East,80,0.0,0.0,82,0.00,CLR,,0.00,WeatherDisplay:10.37,2013-06-15 06:11:00,
2013-06-15 02:16:00,61.5,56.3,30.01,East,80,0.0,0.0,83,0.00,CLR,,0.00,WeatherDisplay:10.37,2013-06-15 06:16:00,
2013-06-15 02:21:00,61.2,56.0,30.01,East,80,0.0,0.0,83,0.00,CLR,,0.00,WeatherDisplay:10.37,2013-06-15 06:21:00,
2013-06-15 02:26:00,60.9,56.0,30.01,East,80,0.0,0.0,84,0.00,CLR,,0.00,WeatherDisplay:10.37,2013-06-15 06:26:00,
2013-06-15 02:31:00,60.7,55.8,30.01,East,80,0.0,0.2,84,0.00,CLR,,0.00,WeatherDisplay:10.37,2013-06-15 06:31:00,
2013-06-15 02:36:00,60.5,55.6,30.01,East,80,1.2,1.2,84,0.00,CLR,,0.00,WeatherDisplay:10.37,2013-06-15 06:36:00,
2013-06-15 02:41:00,60.4,55.5,30.00,East,80,0.0,0.0,84,0.00,CLR,,0.00,WeatherDisplay:10.37,2013-06-15 06:41:00,
2013-06-15 02:46:00,60.2,55.3,30.01,East,80,0.0,0.0,84,0.00,CLR,,0.00,WeatherDisplay:10.37,2013-06-15 06:46:00,
2013-06-15 02:51:00,60.2,55.3,30.00,East,80,1.2,0.0,84,0.00,CLR,,0.00,WeatherDisplay:10.37,2013-06-15 06:51:00,
2013-06-15 02:56:00,60.4,55.5,30.00,East,80,0.0,0.0,84,0.00,CLR,,0.00,WeatherDisplay:10.37,2013-06-15 06:56:00,
2013-06-15 03:01:00,60.4,55.5,30.00,East,80,0.0,0.0,84,0.00,CLR,,0.00,WeatherDisplay:10.37,2013-06-15 07:01:00,
2013-06-15 03:07:00,60.4,55.5,30.00,East,80,0.0,0.0,84,0.00,CLR,,0.00,WeatherDisplay:10.37,2013-06-15 07:07:00,
2013-06-15 03:12:00,60.2,55.3,30.00,East,80,0.0,0.0,84,0.00,CLR,,0.00,WeatherDisplay:10.37,2013-06-15 07:12:00,
2013-06-15 03:17:00,60.2,55.3,30.00,East,80,0.0,0.0,84,0.00,CLR,,0.00,WeatherDisplay:10.37,2013-06-15 07:17:00,
2013-06-15 03:22:00,60.1,55.2,30.00,East,80,1.2,1.2,84,0.00,CLR,,0.00,WeatherDisplay:10.37,2013-06-15 07:22:00,
2013-06-15 03:27:00,59.9,55.4,30.00,East,80,0.0,0.0,85,0.00,CLR,,0.00,WeatherDisplay:10.37,2013-06-15 07:27:00,
2013-06-15 03:32:00,59.9,55.7,29.99,East,80,0.0,0.0,86,0.00,CLR,,0.00,WeatherDisplay:10.37,2013-06-15 07:32:00,
2013-06-15 03:37:00,59.8,55.6,29.99,East,80,0.0,0.0,86,0.00,CLR,,0.00,WeatherDisplay:10.37,2013-06-15 07:37:00,
2013-06-15 03:42:00,59.6,55.4,29.99,East,80,0.0,0.0,86,0.00,CLR,,0.00,WeatherDisplay:10.37,2013-06-15 07:42:00,
2013-06-15 03:47:00,59.5,55.6,29.99,East,80,0.0,0.0,87,0.00,CLR,,0.00,WeatherDisplay:10.37,2013-06-15 07:47:00,
2013-06-15 03:52:00,59.5,55.6,29.99,East,80,0.0,0.0,87,0.00,CLR,,0.00,WeatherDisplay:10.37,2013-06-15 07:52:00,
2013-06-15 03:57:00,59.3,55.7,29.99,East,80,0.0,0.0,88,0.00,CLR,,0.00,WeatherDisplay:10.37,2013-06-15 07:57:00,
2013-06-15 04:02:00,59.2,55.6,29.99,East,80,0.0,0.0,88,0.00,CLR,,0.00,WeatherDisplay:10.37,2013-06-15 08:02:00,
2013-06-15 04:07:00,59.0,55.4,29.99,East,80,0.0,0.0,88,0.00,CLR,,0.00,WeatherDisplay:10.37,2013-06-15 08:07:00,
2013-06-15 04:12:00,58.9,55.4,29.99,East,80,0.0,0.0,88,0.00,CLR,,0.00,WeatherDisplay:10.37,2013-06-15 08:12:00,
2013-06-15 04:17:00,58.7,55.5,29.99,East,80,0.0,0.0,89,0.00,CLR,,0.00,WeatherDisplay:10.37,2013-06-15 08:17:00,
2013-06-15 04:22:00,58.7,55.5,29.98,East,80,0.0,0.0,89,0.00,CLR,,0.00,WeatherDisplay:10.37,2013-06-15 08:22:00,
2013-06-15 04:27:00,58.6,55.4,29.98,East,80,0.0,0.0,89,0.00,CLR,,0.00,WeatherDisplay:10.37,2013-06-15 08:27:00,
2013-06-15 04:32:00,58.6,55.7,29.98,East,80,0.0,0.0,90,0.00,CLR,,0.00,WeatherDisplay:10.37,2013-06-15 08:32:00,
2013-06-15 04:37:00,58.4,55.5,29.98,East,80,0.0,0.0,90,0.00,CLR,,0.00,WeatherDisplay:10.37,2013-06-15 08:37:00,
2013-06-15 04:42:00,58.4,55.5,29.99,East,80,0.0,0.0,90,0.00,CLR,,0.00,WeatherDisplay:10.37,2013-06-15 08:42:00,
2013-06-15 04:47:00,58.4,55.5,29.99,East,80,0.0,0.0,90,0.00,CLR,,0.00,WeatherDisplay:10.37,2013-06-15 08:47:00,
2013-06-15 04:52:00,58.4,55.5,29.99,East,80,0.0,0.0,90,0.00,CLR,,0.00,WeatherDisplay:10.37,2013-06-15 08:52:00,
2013-06-15 04:57:00,58.3,55.4,29.99,East,80,0.0,0.0,90,0.00,CLR,,0.00,WeatherDisplay:10.37,2013-06-15 08:57:00,
2013-06-15 05:02:00,58.3,55.7,29.99,East,80,0.0,0.0,91,0.00,CLR,,0.00,WeatherDisplay:10.37,2013-06-15 09:02:00,
2013-06-15 05:07:00,58.1,55.5,30.00,East,80,0.0,0.0,91,0.00,CLR,,0.00,WeatherDisplay:10.37,2013-06-15 09:07:00,
2013-06-15 05:12:00,58.1,55.5,30.00,East,80,0.0,0.0,91,0.00,CLR,,0.00,WeatherDisplay:10.37,2013-06-15 09:12:00,
2013-06-15 05:17:00,58.1,55.5,30.00,East,80,0.0,0.0,91,0.00,CLR,,0.00,WeatherDisplay:10.37,2013-06-15 09:17:00,
2013-06-15 05:22:00,58.3,55.7,30.00,East,80,2.0,2.0,91,0.00,CLR,,0.00,WeatherDisplay:10.37,2013-06-15 09:22:00,
2013-06-15 05:27:00,58.9,55.7,30.01,North,360,3.5,3.5,89,0.00,CLR,,0.00,WeatherDisplay:10.37,2013-06-15 09:27:00,
2013-06-15 05:32:00,59.6,55.7,30.01,North,360,3.5,3.5,87,0.00,CLR,,0.00,WeatherDisplay:10.37,2013-06-15 09:32:00,
2013-06-15 05:37:00,60.7,55.2,30.02,NNW,337,5.8,5.8,82,0.00,CLR,,0.00,WeatherDisplay:10.37,2013-06-15 09:37:00,
2013-06-15 05:42:00,61.6,55.0,30.02,North,9,6.9,6.9,79,0.00,CLR,,0.00,WeatherDisplay:10.37,2013-06-15 09:42:00,
2013-06-15 05:47:00,62.3,55.0,30.02,North,360,5.8,5.8,77,0.00,CLR,,0.00,WeatherDisplay:10.37,2013-06-15 09:47:00,
2013-06-15 05:52:00,62.4,55.1,30.03,NE,39,6.0,6.0,77,0.00,CLR,,0.00,WeatherDisplay:10.37,2013-06-15 09:52:00,
2013-06-15 05:57:00,62.4,55.1,30.03,North,360,5.8,5.8,77,0.00,CLR,,0.00,WeatherDisplay:10.37,2013-06-15 09:57:00,
2013-06-15 06:02:00,62.3,55.0,30.03,North,11,6.9,6.9,77,0.00,CLR,,0.00,WeatherDisplay:10.37,2013-06-15 10:02:00,
2013-06-15 06:07:00,62.3,55.0,30.04,NNW,332,4.6,4.6,77,0.00,CLR,,0.00,WeatherDisplay:10.37,2013-06-15 10:07:00,
2013-06-15 06:12:00,62.1,54.8,30.04,North,360,5.8,5.8,77,0.00,CLR,,0.00,WeatherDisplay:10.37,2013-06-15 10:12:00,
2013-06-15 06:17:00,62.0,54.7,30.04,North,360,1.2,0.0,77,0.00,CLR,,0.00,WeatherDisplay:10.37,2013-06-15 10:17:00,
2013-06-15 06:22:00,61.8,54.9,30.04,North,360,3.5,3.5,78,0.00,CLR,,0.00,WeatherDisplay:10.37,2013-06-15 10:22:00,
2013-06-15 06:27:00,61.8,54.9,30.04,North,360,5.8,5.8,78,0.00,CLR,,0.00,WeatherDisplay:10.37,2013-06-15 10:27:00,
2013-06-15 06:32:00,61.8,54.9,30.04,NNE,21,5.0,5.0,78,0.00,CLR,,0.00,WeatherDisplay:10.37,2013-06-15 10:32:00,
2013-06-15 06:37:00,61.6,54.7,30.04,NNE,32,3.5,3.5,78,0.00,CLR,,0.00,WeatherDisplay:10.37,2013-06-15 10:37:00,
2013-06-15 06:42:00,61.6,54.7,30.04,North,360,3.5,3.5,78,0.00,CLR,,0.00,WeatherDisplay:10.37,2013-06-15 10:42:00,
2013-06-15 06:47:00,61.6,55.0,30.05,NNE,22,2.3,2.3,79,0.00,CLR,,0.00,WeatherDisplay:10.37,2013-06-15 10:47:00,
2013-06-15 06:52:00,61.5,55.3,30.05,North,351,0.0,0.1,80,0.00,CLR,,0.00,WeatherDisplay:10.37,2013-06-15 10:52:00,
2013-06-15 06:57:00,60.9,56.0,30.05,North,351,0.0,0.0,84,0.00,CLR,,0.00,WeatherDisplay:10.37,2013-06-15 10:57:00,
2013-06-15 07:02:00,60.4,55.9,30.06,North,351,0.0,0.0,85,0.00,CLR,,0.00,WeatherDisplay:10.37,2013-06-15 11:02:00,
2013-06-15 07:07:00,60.2,56.0,30.06,North,351,0.0,0.0,86,0.00,CLR,,0.00,WeatherDisplay:10.37,2013-06-15 11:07:00,
2013-06-15 07:12:00,60.2,56.3,30.05,North,351,0.0,0.0,87,0.00,CLR,,0.00,WeatherDisplay:10.37,2013-06-15 11:12:00,
2013-06-15 07:17:00,60.1,55.9,30.05,North,351,0.0,0.0,86,0.00,CLR,,0.00,WeatherDisplay:10.37,2013-06-15 11:17:00,
2013-06-15 07:22:00,60.2,56.0,30.06,North,351,2.3,0.0,86,0.00,CLR,,0.00,WeatherDisplay:10.37,2013-06-15 11:22:00,
2013-06-15 07:27:00,60.4,56.2,30.06,North,351,3.5,3.5,86,0.00,CLR,,0.00,WeatherDisplay:10.37,2013-06-15 11:27:00,
2013-06-15 07:32:00,61.2,55.7,30.06,North,351,0.0,0.0,82,0.00,CLR,,0.00,WeatherDisplay:10.37,2013-06-15 11:32:00,
2013-06-15 07:37:00,62.0,56.4,30.06,NNE,28,0.0,0.0,82,0.00,CLR,,0.00,WeatherDisplay:10.37,2013-06-15 11:37:00,
2013-06-15 07:42:00,62.3,56.0,30.06,NE,35,3.5,3.5,80,0.00,CLR,,0.00,WeatherDisplay:10.37,2013-06-15 11:42:00,
2013-06-15 07:47:00,62.7,56.4,30.06,NE,35,0.0,0.0,80,0.00,CLR,,0.00,WeatherDisplay:10.37,2013-06-15 11:47:00,
2013-06-15 07:52:00,63.2,56.9,30.06,NE,35,0.0,0.1,80,0.00,CLR,,0.00,WeatherDisplay:10.37,2013-06-15 11:52:00,
2013-06-15 07:57:00,63.5,57.2,30.06,NE,35,0.0,0.0,80,0.00,CLR,,0.00,WeatherDisplay:10.37,2013-06-15 11:57:00,
2013-06-15 08:02:00,64.0,57.7,30.06,NE,35,0.0,0.0,80,0.00,CLR,,0.00,WeatherDisplay:10.37,2013-06-15 12:02:00,
2013-06-15 08:07:00,64.2,57.9,30.06,NE,35,0.0,0.0,80,0.00,CLR,,0.00,WeatherDisplay:10.37,2013-06-15 12:07:00,
2013-06-15 08:12:00,64.5,58.2,30.06,NE,35,0.0,0.0,80,0.00,CLR,,0.00,WeatherDisplay:10.37,2013-06-15 12:12:00,
2013-06-15 08:17:00,64.7,58.0,30.06,NE,35,0.0,0.0,79,0.00,CLR,,0.00,WeatherDisplay:10.37,2013-06-15 12:17:00,
2013-06-15 08:22:00,65.2,58.5,30.06,NE,35,0.0,0.0,79,0.00,CLR,,0.00,WeatherDisplay:10.37,2013-06-15 12:22:00,
2013-06-15 08:27:00,65.6,59.3,30.07,NE,35,0.0,0.0,80,0.00,CLR,,0.00,WeatherDisplay:10.37,2013-06-15 12:27:00,
2013-06-15 08:32:00,66.1,59.0,30.07,NE,35,0.0,0.0,78,0.00,CLR,,0.00,WeatherDisplay:10.37,2013-06-15 12:32:00,
2013-06-15 08:37:00,66.8,59.4,30.07,NE,35,0.0,0.0,77,0.00,CLR,,0.00,WeatherDisplay:10.37,2013-06-15 12:37:00,
2013-06-15 08:42:00,67.1,59.3,30.07,NE,35,0.0,0.0,76,0.00,CLR,,0.00,WeatherDisplay:10.37,2013-06-15 12:42:00,
2013-06-15 08:47:00,67.8,60.0,30.07,NE,35,0.0,0.0,76,0.00,CLR,,0.00,WeatherDisplay:10.37,2013-06-15 12:47:00,
2013-06-15 08:53:00,68.3,58.9,30.08,NE,35,0.0,0.0,72,0.00,CLR,,0.00,WeatherDisplay:10.37,2013-06-15 12:53:00,
2013-06-15 08:58:00,68.8,60.2,30.08,SE,143,0.0,0.0,74,0.00,CLR,,0.00,WeatherDisplay:10.37,2013-06-15 12:58:00,
2013-06-15 09:03:00,69.1,60.5,30.08,SE,144,0.0,0.0,74,0.00,CLR,,0.00,WeatherDisplay:10.37,2013-06-15 13:03:00,
2013-06-15 09:08:00,69.4,59.6,30.08,SE,143,0.0,0.0,71,0.00,CLR,,0.00,WeatherDisplay:10.37,2013-06-15 13:08:00,
2013-06-15 09:13:00,70.3,59.2,30.08,East,96,0.0,0.1,68,0.00,CLR,,0.00,WeatherDisplay:10.37,2013-06-15 13:13:00,
2013-06-15 09:18:00,71.1,59.6,30.08,East,96,0.0,0.0,67,0.00,CLR,,0.00,WeatherDisplay:10.37,2013-06-15 13:18:00,
2013-06-15 09:23:00,72.0,59.2,30.08,East,98,0.0,0.0,64,0.00,CLR,,0.00,WeatherDisplay:10.37,2013-06-15 13:23:00,
2013-06-15 09:28:00,72.7,60.3,30.08,SE,136,0.0,0.0,65,0.00,CLR,,0.00,WeatherDisplay:10.37,2013-06-15 13:28:00,
2013-06-15 09:33:00,73.5,58.8,30.08,SE,136,0.0,0.0,60,0.00,CLR,,0.00,WeatherDisplay:10.37,2013-06-15 13:33:00,
2013-06-15 09:38:00,74.2,58.5,30.08,SE,136,0.0,0.0,58,0.00,CLR,,0.00,WeatherDisplay:10.37,2013-06-15 13:38:00,
2013-06-15 09:43:00,74.2,58.9,30.08,ENE,68,0.0,0.0,59,0.00,CLR,,0.00,WeatherDisplay:10.37,2013-06-15 13:43:00,
2013-06-15 09:48:00,74.2,60.3,30.08,NNE,32,0.0,0.0,62,0.00,CLR,,0.00,WeatherDisplay:10.37,2013-06-15 13:48:00,
2013-06-15 09:53:00,74.0,59.7,30.08,NNE,27,0.0,0.0,61,0.00,CLR,,0.00,WeatherDisplay:10.37,2013-06-15 13:53:00,
2013-06-15 09:58:00,74.2,58.9,30.08,NNE,27,0.0,0.0,59,0.00,CLR,,0.00,WeatherDisplay:10.37,2013-06-15 13:58:00,
2013-06-15 10:03:00,74.6,60.3,30.08,NNE,27,0.0,0.0,61,0.00,CLR,,0.00,WeatherDisplay:10.37,2013-06-15 14:03:00,
2013-06-15 10:08:00,74.6,59.8,30.08,NNW,347,0.0,0.0,60,0.00,CLR,,0.00,WeatherDisplay:10.37,2013-06-15 14:08:00,
2013-06-15 10:13:00,74.7,59.9,30.08,NNW,347,0.0,0.0,60,0.00,CLR,,0.00,WeatherDisplay:10.37,2013-06-15 14:13:00,
2013-06-15 10:18:00,75.3,59.5,30.08,NNW,347,0.0,0.0,58,0.00,CLR,,0.00,WeatherDisplay:10.37,2013-06-15 14:18:00,
2013-06-15 10:23:00,75.6,59.8,30.08,South,190,0.0,0.0,58,0.00,CLR,,0.00,WeatherDisplay:10.37,2013-06-15 14:23:00,
2013-06-15 10:28:00,75.8,60.4,30.08,South,190,0.0,0.0,59,0.00,CLR,,0.00,WeatherDisplay:10.37,2013-06-15 14:28:00,
2013-06-15 10:33:00,76.3,60.9,30.08,South,190,0.0,0.0,59,0.00,CLR,,0.00,WeatherDisplay:10.37,2013-06-15 14:33:00,
2013-06-15 10:38:00,76.5,59.6,30.07,NNE,21,1.2,1.2,56,0.00,CLR,,0.00,WeatherDisplay:10.37,2013-06-15 14:38:00,
2013-06-15 10:43:00,76.7,60.3,30.08,West,267,1.2,1.2,57,0.00,CLR,,0.00,WeatherDisplay:10.37,2013-06-15 14:43:00,
2013-06-15 10:48:00,76.7,60.3,30.07,ESE,121,1.2,1.2,57,0.00,CLR,,0.00,WeatherDisplay:10.37,2013-06-15 14:48:00,
2013-06-15 10:53:00,77.0,61.1,30.08,South,171,0.0,0.0,58,0.00,CLR,,0.00,WeatherDisplay:10.37,2013-06-15 14:53:00,
2013-06-15 10:58:00,77.4,60.5,30.08,South,171,0.0,0.0,56,0.00,CLR,,0.00,WeatherDisplay:10.37,2013-06-15 14:58:00,
2013-06-15 11:03:00,77.9,59.9,30.08,WNW,291,2.0,2.0,54,0.00,CLR,,0.00,WeatherDisplay:10.37,2013-06-15 15:03:00,
2013-06-15 11:08:00,77.9,60.9,30.08,WSW,252,3.5,3.5,56,0.00,CLR,,0.00,WeatherDisplay:10.37,2013-06-15 15:08:00,
2013-06-15 11:13:00,78.1,59.6,30.08,NNW,348,1.2,1.2,53,0.00,CLR,,0.00,WeatherDisplay:10.37,2013-06-15 15:13:00,
2013-06-15 11:18:00,77.9,58.9,30.08,NNW,348,0.0,0.0,52,0.00,CLR,,0.00,WeatherDisplay:10.37,2013-06-15 15:18:00,
2013-06-15 11:23:00,78.1,60.6,30.08,NW,321,3.0,3.0,55,0.00,CLR,,0.00,WeatherDisplay:10.37,2013-06-15 15:23:00,
2013-06-15 11:28:00,78.1,59.6,30.08,NW,304,1.2,1.2,53,0.00,CLR,,0.00,WeatherDisplay:10.37,2013-06-15 15:28:00,
2013-06-15 11:33:00,78.3,59.8,30.08,WSW,239,3.5,3.5,53,0.00,CLR,,0.00,WeatherDisplay:10.37,2013-06-15 15:33:00,
2013-06-15 11:38:00,78.5,62.0,30.07,West,281,1.2,0.0,57,0.00,CLR,,0.00,WeatherDisplay:10.37,2013-06-15 15:38:00,
2013-06-15 11:43:00,78.6,59.0,30.07,NW,311,0.0,0.0,51,0.00,CLR,,0.00,WeatherDisplay:10.37,2013-06-15 15:43:00,
2013-06-15 11:48:00,78.8,61.3,30.08,NW,309,0.0,0.0,55,0.00,CLR,,0.00,WeatherDisplay:10.37,2013-06-15 15:48:00,
2013-06-15 11:53:00,79.0,60.4,30.07,North,360,1.2,0.0,53,0.00,CLR,,0.00,WeatherDisplay:10.37,2013-06-15 15:53:00,
2013-06-15 11:58:00,79.2,60.1,30.07,ENE,67,0.0,0.0,52,0.00,CLR,,0.00,WeatherDisplay:10.37,2013-06-15 15:58:00,
2013-06-15 12:03:00,79.6,61.5,30.07,NE,44,0.0,0.0,54,0.00,CLR,,0.00,WeatherDisplay:10.37,2013-06-15 16:03:00,
2013-06-15 12:08:00,79.8,60.6,30.07,ESE,120,1.2,0.0,52,0.00,CLR,,0.00,WeatherDisplay:10.37,2013-06-15 16:08:00,
2013-06-15 12:13:00,79.9,59.6,30.07,NE,54,2.3,2.3,50,0.00,CLR,,0.00,WeatherDisplay:10.37,2013-06-15 16:13:00,
2013-06-15 12:18:00,79.9,59.0,30.06,NE,37,1.2,0.0,49,0.00,CLR,,0.00,WeatherDisplay:10.37,2013-06-15 16:18:00,
2013-06-15 12:23:00,80.1,59.8,30.06,NE,38,0.0,0.0,50,0.00,CLR,,0.00,WeatherDisplay:10.37,2013-06-15 16:23:00,
2013-06-15 12:28:00,80.3,60.5,30.06,SE,134,3.5,3.5,51,0.00,CLR,,0.00,WeatherDisplay:10.37,2013-06-15 16:28:00,
2013-06-15 12:33:00,80.5,60.7,30.06,NE,48,1.2,1.2,51,0.00,CLR,,0.00,WeatherDisplay:10.37,2013-06-15 16:33:00,
2013-06-15 12:38:00,80.3,60.0,30.06,East,83,1.2,0.0,50,0.00,CLR,,0.00,WeatherDisplay:10.37,2013-06-15 16:38:00,
2013-06-15 12:43:00,80.3,60.5,30.06,East,84,0.0,0.1,51,0.00,CLR,,0.00,WeatherDisplay:10.37,2013-06-15 16:43:00,
2013-06-15 12:48:00,80.7,60.9,30.06,NNW,343,0.0,0.0,51,0.00,CLR,,0.00,WeatherDisplay:10.37,2013-06-15 16:48:00,
2013-06-15 12:53:00,81.1,61.8,30.06,SSE,148,1.2,1.2,52,0.00,CLR,,0.00,WeatherDisplay:10.37,2013-06-15 16:53:00,
2013-06-15 12:58:00,81.1,61.8,30.06,NE,54,1.2,0.0,52,0.00,CLR,,0.00,WeatherDisplay:10.37,2013-06-15 16:58:00,
2013-06-15 13:03:00,80.7,60.3,30.06,NW,323,3.5,3.5,50,0.00,CLR,,0.00,WeatherDisplay:10.37,2013-06-15 17:03:00,
2013-06-15 13:08:00,80.7,59.8,30.06,NNW,341,0.0,0.0,49,0.00,CLR,,0.00,WeatherDisplay:10.37,2013-06-15 17:08:00,
2013-06-15 13:13:00,80.7,60.9,30.05,ESE,113,1.2,0.0,51,0.00,CLR,,0.00,WeatherDisplay:10.37,2013-06-15 17:13:00,
2013-06-15 13:18:00,81.1,60.7,30.06,WNW,293,3.5,3.5,50,0.00,SCT,,0.00,WeatherDisplay:10.37,2013-06-15 17:18:00,
2013-06-15 13:23:00,81.2,59.1,30.05,NNE,17,3.5,3.5,47,0.00,SCT,,0.00,WeatherDisplay:10.37,2013-06-15 17:23:00,
2013-06-15 13:28:00,81.1,60.1,30.05,NE,38,3.5,0.0,49,0.00,SCT,,0.00,WeatherDisplay:10.37,2013-06-15 17:28:00,
2013-06-15 13:33:00,81.2,61.9,30.05,NW,313,1.2,1.2,52,0.00,SCT,,0.00,WeatherDisplay:10.37,2013-06-15 17:33:00,
2013-06-15 13:38:00,81.2,61.9,30.05,WNW,302,5.8,5.8,52,0.00,SCT,,0.00,WeatherDisplay:10.37,2013-06-15 17:38:00,
2013-06-15 13:43:00,81.1,61.3,30.05,NW,319,1.2,1.2,51,0.00,SCT,,0.00,WeatherDisplay:10.37,2013-06-15 17:43:00,
2013-06-15 13:48:00,81.1,59.0,30.05,West,280,4.6,4.6,47,0.00,SCT,,0.00,WeatherDisplay:10.37,2013-06-15 17:48:00,
2013-06-15 13:53:00,81.2,59.6,30.05,WNW,287,4.6,4.6,48,0.00,SCT,,0.00,WeatherDisplay:10.37,2013-06-15 17:53:00,
2013-06-15 13:58:00,81.4,61.0,30.04,SE,127,1.2,1.2,50,0.00,SCT,,0.00,WeatherDisplay:10.37,2013-06-15 17:58:00,
2013-06-15 14:03:00,81.6,61.2,30.04,NE,44,1.2,1.2,50,0.00,SCT,,0.00,WeatherDisplay:10.37,2013-06-15 18:03:00,
2013-06-15 14:08:00,82.0,59.8,30.04,WNW,283,4.6,4.6,47,0.00,SCT,,0.00,WeatherDisplay:10.37,2013-06-15 18:08:00,
2013-06-15 14:13:00,82.0,62.1,30.04,North,351,1.2,1.2,51,0.00,SCT,,0.00,WeatherDisplay:10.37,2013-06-15 18:13:00,
2013-06-15 14:18:00,82.2,59.4,30.04,SSW,192,3.5,3.5,46,0.00,SCT,,0.00,WeatherDisplay:10.37,2013-06-15 18:18:00,
2013-06-15 14:23:00,82.6,58.5,30.05,WSW,242,0.0,0.0,44,0.00,SCT,,0.00,WeatherDisplay:10.37,2013-06-15 18:23:00,
2013-06-15 14:28:00,82.0,60.4,30.04,North,360,0.0,0.0,48,0.00,SCT,,0.00,WeatherDisplay:10.37,2013-06-15 18:28:00,
2013-06-15 14:33:00,81.6,62.3,30.04,NNW,329,0.0,0.0,52,0.00,SCT,,0.00,WeatherDisplay:10.37,2013-06-15 18:33:00,
2013-06-15 14:38:00,81.8,61.9,30.04,NNW,338,0.0,0.0,51,0.00,SCT,,0.00,WeatherDisplay:10.37,2013-06-15 18:38:00,
2013-06-15 14:43:00,82.2,61.1,30.04,SW,235,3.5,3.5,49,0.00,SCT,,0.00,WeatherDisplay:10.37,2013-06-15 18:43:00,
2013-06-15 14:48:00,82.6,60.9,30.04,NW,304,1.2,1.2,48,0.00,SCT,,0.00,WeatherDisplay:10.37,2013-06-15 18:48:00,
2013-06-15 14:54:00,82.4,60.7,30.04,NW,309,3.5,3.5,48,0.00,SCT,,0.00,WeatherDisplay:10.37,2013-06-15 18:54:00,
2013-06-15 14:59:00,82.6,60.3,30.03,SE,131,1.2,0.0,47,0.00,SCT,,0.00,WeatherDisplay:10.37,2013-06-15 18:59:00,
2013-06-15 15:04:00,83.0,62.4,30.03,ENE,59,1.2,0.0,50,0.00,SCT,,0.00,WeatherDisplay:10.37,2013-06-15 19:04:00,
2013-06-15 15:09:00,83.2,60.9,30.03,SSW,192,2.0,2.5,47,0.00,SCT,,0.00,WeatherDisplay:10.37,2013-06-15 19:09:00,
2013-06-15 15:14:00,83.0,61.3,30.04,West,277,3.5,3.5,48,0.00,SCT,,0.00,WeatherDisplay:10.37,2013-06-15 19:14:00,
2013-06-15 15:19:00,83.0,61.3,30.03,NW,306,3.5,3.5,48,0.00,BKN,,0.00,WeatherDisplay:10.37,2013-06-15 19:19:00,
2013-06-15 15:24:00,83.2,60.3,30.03,NE,50,1.2,0.0,46,0.00,BKN,,0.00,WeatherDisplay:10.37,2013-06-15 19:24:00,
2013-06-15 15:29:00,83.0,59.5,30.03,NE,42,1.2,0.0,45,0.00,BKN,,0.00,WeatherDisplay:10.37,2013-06-15 19:29:00,
2013-06-15 15:34:00,83.0,59.5,30.03,NW,306,0.0,0.0,45,0.00,BKN,,0.00,WeatherDisplay:10.37,2013-06-15 19:34:00,
2013-06-15 15:39:00,83.0,60.7,30.03,WSW,254,6.9,6.9,47,0.00,BKN,,0.00,WeatherDisplay:10.37,2013-06-15 19:39:00,
2013-06-15 15:44:00,83.2,60.9,30.03,West,272,3.5,3.5,47,0.00,BKN,,0.00,WeatherDisplay:10.37,2013-06-15 19:44:00,
2013-06-15 15:49:00,83.2,60.3,30.03,NNE,13,1.2,1.2,46,0.00,BKN,,0.00,WeatherDisplay:10.37,2013-06-15 19:49:00,
2013-06-15 15:54:00,83.2,61.5,30.03,ESE,103,1.2,1.2,48,0.00,BKN,,0.00,WeatherDisplay:10.37,2013-06-15 19:54:00,
2013-06-15 15:59:00,83.6,63.6,30.02,ESE,123,2.3,2.3,51,0.00,BKN,,0.00,WeatherDisplay:10.37,2013-06-15 19:59:00,
2013-06-15 16:04:00,83.8,62.0,30.02,NW,323,1.2,1.2,48,0.00,SCT,,0.00,WeatherDisplay:10.37,2013-06-15 20:04:00,
2013-06-15 16:09:00,84.0,62.2,30.02,WNW,296,5.8,5.8,48,0.00,SCT,,0.00,WeatherDisplay:10.37,2013-06-15 20:09:00,
2013-06-15 16:14:00,84.0,61.0,30.02,East,86,1.2,1.2,46,0.00,SCT,,0.00,WeatherDisplay:10.37,2013-06-15 20:14:00,
2013-06-15 16:19:00,84.0,61.6,30.02,WNW,293,3.5,3.5,47,0.00,SCT,,0.00,WeatherDisplay:10.37,2013-06-15 20:19:00,
2013-06-15 16:24:00,84.0,60.4,30.02,NNE,12,3.5,3.5,45,0.00,SCT,,0.00,WeatherDisplay:10.37,2013-06-15 20:24:00,
2013-06-15 16:29:00,83.6,63.0,30.02,NNW,336,0.0,0.0,50,0.00,SCT,,0.00,WeatherDisplay:10.37,2013-06-15 20:29:00,
2013-06-15 16:34:00,83.4,62.2,30.02,East,95,1.2,0.0,49,0.00,SCT,,0.00,WeatherDisplay:10.37,2013-06-15 20:34:00,
2013-06-15 16:39:00,83.8,62.0,30.02,East,85,0.0,0.0,48,0.00,SCT,,0.00,WeatherDisplay:10.37,2013-06-15 20:39:00,
2013-06-15 16:44:00,84.1,63.5,30.01,East,86,2.0,2.0,50,0.00,SCT,,0.00,WeatherDisplay:10.37,2013-06-15 20:44:00,
2013-06-15 16:49:00,84.5,63.8,30.01,NNW,346,0.0,0.0,50,0.00,SCT,,0.00,WeatherDisplay:10.37,2013-06-15 20:49:00,
2013-06-15 16:54:00,85.1,62.0,30.01,NW,322,0.0,0.0,46,0.00,SCT,,0.00,WeatherDisplay:10.37,2013-06-15 20:54:00,
2013-06-15 16:59:00,85.3,61.6,30.01,WNW,293,3.5,3.5,45,0.00,SCT,,0.00,WeatherDisplay:10.37,2013-06-15 20:59:00,
2013-06-15 17:04:00,85.1,62.0,30.01,WNW,292,0.0,0.0,46,0.00,CLR,,0.00,WeatherDisplay:10.37,2013-06-15 21:04:00,
2013-06-15 17:09:00,84.7,62.2,30.01,NNW,328,0.0,0.0,47,0.00,CLR,,0.00,WeatherDisplay:10.37,2013-06-15 21:09:00,
2013-06-15 17:14:00,84.1,62.3,30.01,NE,41,1.0,1.0,48,0.00,CLR,,0.00,WeatherDisplay:10.37,2013-06-15 21:14:00,
2013-06-15 17:19:00,84.3,62.5,30.01,NE,41,1.2,0.0,48,0.00,CLR,,0.00,WeatherDisplay:10.37,2013-06-15 21:19:00,
2013-06-15 17:24:00,84.5,63.8,30.01,NE,41,0.0,0.0,50,0.00,CLR,,0.00,WeatherDisplay:10.37,2013-06-15 21:24:00,
2013-06-15 17:29:00,84.5,63.2,30.01,ENE,69,0.0,0.0,49,0.00,CLR,,0.00,WeatherDisplay:10.37,2013-06-15 21:29:00,
2013-06-15 17:34:00,84.3,62.5,30.01,SSW,209,1.2,0.0,48,0.00,CLR,,0.00,WeatherDisplay:10.37,2013-06-15 21:34:00,
2013-06-15 17:39:00,84.1,62.3,30.01,ESE,103,0.0,0.0,48,0.00,CLR,,0.00,WeatherDisplay:10.37,2013-06-15 21:39:00,
2013-06-15 17:44:00,84.1,61.7,30.00,ESE,103,1.2,1.2,47,0.00,CLR,,0.00,WeatherDisplay:10.37,2013-06-15 21:44:00,
2013-06-15 17:49:00,84.1,62.3,30.00,SE,127,1.2,0.0,48,0.00,CLR,,0.00,WeatherDisplay:10.37,2013-06-15 21:49:00,
2013-06-15 17:54:00,84.0,64.5,30.00,WSW,257,3.5,3.5,52,0.00,CLR,,0.00,WeatherDisplay:10.37,2013-06-15 21:54:00,
2013-06-15 17:59:00,83.8,60.8,30.00,NE,48,0.0,0.0,46,0.00,CLR,,0.00,WeatherDisplay:10.37,2013-06-15 21:59:00,
2013-06-15 18:04:00,83.6,61.8,30.00,NE,53,1.2,1.2,48,0.00,CLR,,0.00,WeatherDisplay:10.37,2013-06-15 22:04:00,
2013-06-15 18:09:00,83.4,61.1,30.00,NE,52,2.3,2.3,47,0.00,CLR,,0.00,WeatherDisplay:10.37,2013-06-15 22:09:00,
2013-06-15 18:14:00,83.6,63.0,30.00,NE,52,1.2,1.2,50,0.00,CLR,,0.00,WeatherDisplay:10.37,2013-06-15 22:14:00,
2013-06-15 18:19:00,83.6,61.8,30.00,East,99,2.0,2.0,48,0.00,CLR,,0.00,WeatherDisplay:10.37,2013-06-15 22:19:00,
2013-06-15 18:24:00,83.4,63.9,29.99,ENE,73,1.2,1.2,52,0.00,CLR,,0.00,WeatherDisplay:10.37,2013-06-15 22:24:00,
2013-06-15 18:29:00,83.4,62.8,29.99,ENE,73,0.0,0.0,50,0.00,CLR,,0.00,WeatherDisplay:10.37,2013-06-15 22:29:00,
2013-06-15 18:34:00,83.0,62.4,29.99,ENE,73,0.0,0.0,50,0.00,CLR,,0.00,WeatherDisplay:10.37,2013-06-15 22:34:00,
2013-06-15 18:39:00,82.8,62.3,30.00,ENE,73,0.0,0.0,50,0.00,CLR,,0.00,WeatherDisplay:10.37,2013-06-15 22:39:00,
2013-06-15 18:44:00,82.8,62.3,30.00,ENE,73,0.0,0.0,50,0.00,CLR,,0.00,WeatherDisplay:10.37,2013-06-15 22:44:00,
2013-06-15 18:49:00,82.8,62.3,30.00,ENE,78,0.0,0.0,50,0.00,CLR,,0.00,WeatherDisplay:10.37,2013-06-15 22:49:00,
2013-06-15 18:54:00,82.6,62.1,30.00,NNW,331,3.0,3.0,50,0.00,CLR,,0.00,WeatherDisplay:10.37,2013-06-15 22:54:00,
2013-06-15 18:59:00,82.6,62.1,29.99,NNW,331,1.2,0.0,50,0.00,CLR,,0.00,WeatherDisplay:10.37,2013-06-15 22:59:00,
2013-06-15 19:04:00,82.4,62.5,30.00,NNE,32,1.2,1.2,51,0.00,CLR,,0.00,WeatherDisplay:10.37,2013-06-15 23:04:00,
2013-06-15 19:09:00,82.0,62.6,30.00,NNE,32,0.0,0.0,52,0.00,CLR,,0.00,WeatherDisplay:10.37,2013-06-15 23:09:00,
2013-06-15 19:14:00,81.4,62.6,30.00,NNE,32,0.0,0.0,53,0.00,CLR,,0.00,WeatherDisplay:10.37,2013-06-15 23:14:00,
2013-06-15 19:19:00,81.1,62.3,30.00,NNE,32,0.0,0.0,53,0.00,CLR,,0.00,WeatherDisplay:10.37,2013-06-15 23:19:00,
2013-06-15 19:24:00,80.7,62.0,30.00,NNE,32,0.0,0.0,53,0.00,CLR,,0.00,WeatherDisplay:10.37,2013-06-15 23:24:00,
2013-06-15 19:29:00,80.3,62.1,30.00,NNE,32,0.0,0.0,54,0.00,CLR,,0.00,WeatherDisplay:10.37,2013-06-15 23:29:00,
2013-06-15 19:34:00,79.9,62.3,30.00,NNE,32,0.0,0.0,55,0.00,CLR,,0.00,WeatherDisplay:10.37,2013-06-15 23:34:00,
2013-06-15 19:39:00,79.6,63.0,30.01,NNE,32,1.2,0.0,57,0.00,CLR,,0.00,WeatherDisplay:10.37,2013-06-15 23:39:00,
2013-06-15 19:44:00,79.2,62.1,30.01,NNE,32,0.0,0.0,56,0.00,CLR,,0.00,WeatherDisplay:10.37,2013-06-15 23:44:00,
2013-06-15 19:49:00,78.8,61.8,30.01,NNE,32,0.0,0.0,56,0.00,CLR,,0.00,WeatherDisplay:10.37,2013-06-15 23:49:00,
2013-06-15 19:54:00,78.6,62.6,30.01,NNE,32,0.0,0.0,58,0.00,CLR,,0.00,WeatherDisplay:10.37,2013-06-15 23:54:00,
2013-06-15 19:59:00,78.1,62.1,30.01,NNE,32,0.0,0.0,58,0.00,CLR,,0.00,WeatherDisplay:10.37,2013-06-15 23:59:00,
2013-06-15 20:04:00,77.9,61.9,30.01,NNE,32,0.0,0.0,58,0.00,CLR,,0.00,WeatherDisplay:10.37,2013-06-16 00:04:00,
2013-06-15 20:09:00,77.4,62.9,30.01,NNE,32,0.0,0.0,61,0.00,CLR,,0.00,WeatherDisplay:10.37,2013-06-16 00:09:00,
2013-06-15 20:15:00,77.2,63.2,30.01,NNE,32,0.0,0.0,62,0.00,CLR,,0.00,WeatherDisplay:10.37,2013-06-16 00:15:00,
2013-06-15 20:20:00,76.7,62.7,30.01,NNE,32,0.0,0.0,62,0.00,CLR,,0.00,WeatherDisplay:10.37,2013-06-16 00:20:00,
2013-06-15 20:25:00,76.3,63.2,30.01,NNE,32,0.0,0.0,64,0.00,CLR,,0.00,WeatherDisplay:10.37,2013-06-16 00:25:00,
2013-06-15 20:30:00,76.0,63.4,30.01,NNE,32,0.0,0.0,65,0.00,CLR,,0.00,WeatherDisplay:10.37,2013-06-16 00:30:00,
2013-06-15 20:35:00,75.4,62.8,30.01,NNE,32,0.0,0.0,65,0.00,CLR,,0.00,WeatherDisplay:10.37,2013-06-16 00:35:00,
2013-06-15 20:40:00,74.9,62.8,30.00,NNE,32,0.0,0.0,66,0.00,CLR,,0.00,WeatherDisplay:10.37,2013-06-16 00:40:00,
2013-06-15 20:45:00,74.4,62.3,30.00,NNE,32,0.0,0.0,66,0.00,CLR,,0.00,WeatherDisplay:10.37,2013-06-16 00:45:00,
2013-06-15 20:50:00,74.0,62.3,30.01,NNE,32,0.0,0.0,67,0.00,CLR,,0.00,WeatherDisplay:10.37,2013-06-16 00:50:00,
2013-06-15 20:55:00,73.6,62.8,30.01,NNE,32,0.0,0.0,69,0.00,CLR,,0.00,WeatherDisplay:10.37,2013-06-16 00:55:00,
2013-06-15 21:00:00,73.0,62.6,30.01,NNE,32,0.0,0.0,70,0.00,CLR,,0.00,WeatherDisplay:10.37,2013-06-16 01:00:00,
2013-06-15 21:05:00,72.5,62.6,30.01,NNE,32,0.0,0.0,71,0.00,CLR,,0.00,WeatherDisplay:10.37,2013-06-16 01:05:00,
2013-06-15 21:10:00,72.1,61.8,30.00,NNE,32,0.0,0.0,70,0.00,CLR,,0.00,WeatherDisplay:10.37,2013-06-16 01:10:00,
2013-06-15 21:15:00,71.8,61.5,30.00,NNE,32,0.0,0.0,70,0.00,CLR,,0.00,WeatherDisplay:10.37,2013-06-16 01:15:00,
2013-06-15 21:20:00,71.6,62.1,30.00,NNE,32,0.0,0.0,72,0.00,CLR,,0.00,WeatherDisplay:10.37,2013-06-16 01:20:00,
2013-06-15 21:25:00,71.3,61.8,30.01,NNE,32,0.0,0.0,72,0.00,CLR,,0.00,WeatherDisplay:10.37,2013-06-16 01:25:00,
2013-06-15 21:30:00,70.8,61.7,30.01,NNE,32,0.0,0.0,73,0.00,CLR,,0.00,WeatherDisplay:10.37,2013-06-16 01:30:00,
2013-06-15 21:35:00,70.4,61.7,30.01,NNE,32,0.0,0.0,74,0.00,CLR,,0.00,WeatherDisplay:10.37,2013-06-16 01:35:00,
2013-06-15 21:40:00,69.9,61.6,30.01,NNE,32,0.0,0.0,75,0.00,CLR,,0.00,WeatherDisplay:10.37,2013-06-16 01:40:00,
2013-06-15 21:45:00,69.7,61.4,30.01,NNE,32,0.0,0.0,75,0.00,CLR,,0.00,WeatherDisplay:10.37,2013-06-16 01:45:00,
2013-06-15 21:50:00,69.3,61.4,30.01,NNE,32,0.0,0.0,76,0.00,CLR,,0.00,WeatherDisplay:10.37,2013-06-16 01:50:00,
2013-06-15 21:55:00,69.1,61.6,30.01,NNE,32,0.0,0.0,77,0.00,CLR,,0.00,WeatherDisplay:10.37,2013-06-16 01:55:00,
2013-06-15 22:00:00,68.8,61.3,30.01,NNE,32,0.0,0.0,77,0.00,CLR,,0.00,WeatherDisplay:10.37,2013-06-16 02:00:00,
2013-06-15 22:05:00,68.4,61.3,30.01,NNE,32,0.0,0.0,78,0.00,CLR,,0.00,WeatherDisplay:10.37,2013-06-16 02:05:00,
2013-06-15 22:10:00,68.1,61.3,30.01,NNE,32,0.0,0.0,79,0.00,CLR,,0.00,WeatherDisplay:10.37,2013-06-16 02:10:00,
2013-06-15 22:15:00,67.9,61.2,30.02,NNE,32,0.0,0.0,79,0.00,CLR,,0.00,WeatherDisplay:10.37,2013-06-16 02:15:00,
2013-06-15 22:20:00,67.8,61.0,30.02,NNE,32,0.0,0.0,79,0.00,CLR,,0.00,WeatherDisplay:10.37,2013-06-16 02:20:00,
2013-06-15 22:25:00,67.6,61.2,30.02,NNE,32,0.0,0.0,80,0.00,CLR,,0.00,WeatherDisplay:10.37,2013-06-16 02:25:00,
2013-06-15 22:30:00,67.4,61.0,30.02,NNE,32,0.0,0.0,80,0.00,CLR,,0.00,WeatherDisplay:10.37,2013-06-16 02:30:00,
2013-06-15 22:35:00,67.3,60.9,30.03,NNE,32,0.0,0.0,80,0.00,CLR,,0.00,WeatherDisplay:10.37,2013-06-16 02:35:00,
2013-06-15 22:40:00,67.1,60.7,30.03,NNE,32,0.0,0.0,80,0.00,CLR,,0.00,WeatherDisplay:10.37,2013-06-16 02:40:00,
2013-06-15 22:45:00,67.1,60.7,30.03,NNE,32,0.0,0.0,80,0.00,CLR,,0.00,WeatherDisplay:10.37,2013-06-16 02:45:00,
2013-06-15 22:50:00,66.9,60.9,30.03,NNE,32,0.0,0.0,81,0.00,CLR,,0.00,WeatherDisplay:10.37,2013-06-16 02:50:00,
2013-06-15 22:55:00,66.8,60.8,30.03,NNE,32,0.0,0.0,81,0.00,CLR,,0.00,WeatherDisplay:10.37,2013-06-16 02:55:00,
2013-06-15 23:00:00,66.6,60.9,30.03,NNE,32,0.0,0.0,82,0.00,CLR,,0.00,WeatherDisplay:10.37,2013-06-16 03:00:00,
2013-06-15 23:05:00,66.4,60.7,30.03,NNE,32,0.0,0.0,82,0.00,CLR,,0.00,WeatherDisplay:10.37,2013-06-16 03:05:00,
2013-06-15 23:10:00,66.4,60.7,30.03,NNE,32,0.0,0.0,82,0.00,CLR,,0.00,WeatherDisplay:10.37,2013-06-16 03:10:00,
2013-06-15 23:15:00,66.4,60.7,30.03,NNE,32,0.0,0.0,82,0.00,CLR,,0.00,WeatherDisplay:10.37,2013-06-16 03:15:00,
2013-06-15 23:20:00,66.3,60.6,30.04,NNE,32,0.0,0.0,82,0.00,CLR,,0.00,WeatherDisplay:10.37,2013-06-16 03:20:00,
2013-06-15 23:25:00,66.3,60.6,30.04,NNE,32,0.0,0.0,82,0.00,CLR,,0.00,WeatherDisplay:10.37,2013-06-16 03:25:00,
2013-06-15 23:30:00,66.3,60.6,30.04,NNE,32,0.0,0.0,82,0.00,CLR,,0.00,WeatherDisplay:10.37,2013-06-16 03:30:00,
2013-06-15 23:35:00,66.1,60.8,30.04,NNE,32,0.0,0.0,83,0.00,CLR,,0.00,WeatherDisplay:10.37,2013-06-16 03:35:00,
2013-06-15 23:40:00,66.0,60.7,30.04,NNE,32,0.0,0.0,83,0.00,CLR,,0.00,WeatherDisplay:10.37,2013-06-16 03:40:00,
2013-06-15 23:45:00,65.8,60.5,30.04,NNE,32,0.0,0.0,83,0.00,CLR,,0.00,WeatherDisplay:10.37,2013-06-16 03:45:00,
2013-06-15 23:50:00,65.6,60.3,30.04,NNE,32,0.0,0.0,83,0.00,CLR,,0.00,WeatherDisplay:10.37,2013-06-16 03:50:00,
2013-06-15 23:55:00,65.6,60.6,30.04,NNE,32,0.0,0.0,84,0.00,CLR,,0.00,WeatherDisplay:10.37,2013-06-16 03:55:00,